Wetbulb
44.66 39.53 36.19 39.63 39.84 38.94 36.79 35.66 35.12 38.14 42.85 40.29 40.73 40.29 41.12 44.08 43.20 43.44 45.62 44.40 45.38 44.51 47.48 48.55 49.40 49.91 49.37 51.34 62.44 65.23 66.37 67.01 65.41 63.91 63.22 62.33 62.53 61.07 61.61 62.80 63.72 64.05 64.14 63.40
40.99 37.12 42.40 43.14 42.39 40.60 38.84 36.28 35.21 38.91 42.48 39.63 38.90 40.07 41.46 42.49 43.17 45.15 45.33 45.83 45.63 44.84 45.20 47.32 48.96 48.16 49.09 51.81 61.66 64.76 65.42 65.07 65.83 65.49 63.73 62.66 61.43 60.01 60.76 61.59 62.12 62.78 62.93 62.98
38.07 42.03 45.82 43.51 41.48 39.54 38.42 35.86 36.12 36.72 40.26 39.67 37.46 37.24 38.26 41.53 42.48 43.61 44.43 44.89 46.63 45.54 46.77 48.40 48.81 47.49 48.44 51.74 60.47 64.55 65.03 64.87 65.56 64.51 61.48 60.39 60.06 59.70 59.07 59.15 59.69 61.21 61.90 61.51
38.34 42.63 41.61 39.95 38.85 39.51 34.32 40.98 40.89 39.48 35.28 30.04 36.55 28.57 36.33 38.62 40.47 43.01 42.74 43.94 43.46 43.66 45.36 46.29 47.16 47.81 48.14 51.52 59.35 64.30 64.94 64.79 64.60 63.36 62.72 61.71 60.75 58.45 58.08 58.65 59.48 60.28 61.08 60.64
36.92 37.38 37.32 36.70 37.72 39.71 36.93 41.17 39.83 38.89 34.68 31.43 32.89 30.69 32.64 36.91 38.25 41.29 43.02 44.47 45.48 46.18 46.75 47.70 50.29 50.23 48.62 53.06 58.20 63.08 64.30 64.34 63.62 63.31 62.63 60.76 57.29 57.12 57.25 58.23 58.78 58.47 58.88 60.29
36.42 40.65 37.29 35.78 38.88 38.06 39.43 38.07 38.58 36.94 34.34 28.02 32.11 32.05 32.91 32.55 36.69 39.44 41.93 43.51 46.64 47.20 48.92 51.92 52.99 52.28 52.62 55.21 58.07 60.14 62.53 62.74 62.40 61.13 59.92 59.28 57.48 56.60 56.72 56.32 56.43 56.24 56.55 58.27
32.93 33.13 35.89 36.74 33.55 36.44 36.57 32.70 26.43 25.13 25.96 26.61 34.35 32.51 34.78 37.38 39.43 40.21 40.55 42.12 45.49 48.52 50.11 52.24 52.73 52.55 53.77 54.68 56.09 58.22 58.11 57.38 58.91 58.85 57.89 57.76 56.87 56.55 56.71 55.83 55.56 55.53 55.77 56.59
24.95 24.20 29.96 33.51 31.18 28.88 30.51 30.27 26.66 19.42 22.23 24.92 34.33 28.43 33.27 39.60 40.55 41.76 42.77 43.46 43.48 44.01 47.18 52.18 53.35 53.47 54.21 55.06 55.75 56.11 56.23 55.79 56.24 56.50 56.47 56.55 56.39 55.28 55.61 55.85 56.30 55.88 55.93 56.53
23.85 24.96 32.07 33.04 33.19 32.95 28.71 23.91 28.66 22.04 24.18 21.24 24.91 31.58 36.61 39.70 38.27 38.33 37.93 40.81 42.40 43.63 45.81 49.08 53.27 53.59 54.25 54.96 55.45 55.82 56.04 56.17 56.09 55.67 55.79 55.29 55.29 55.39 55.53 55.59 56.19 56.06 55.98 57.75
27.11 22.58 28.76 31.91 33.61 33.39 29.50 30.79 23.20 24.30 15.41 18.43 23.09 25.45 29.05 33.07 34.27 35.93 35.37 37.22 40.99 44.39 45.89 47.43 51.48 53.04 54.27 55.35 56.10 56.49 56.71 56.12 55.75 55.51 55.88 55.73 55.50 55.66 55.73 56.08 55.65 55.90 55.75 56.52
27.36 26.29 24.93 28.05 25.79 24.96 25.00 22.89 25.06 24.95 22.73 17.72 16.94 21.33 34.52 31.48 34.31 34.26 35.64 38.61 40.16 42.85 45.06 47.10 49.29 53.56 53.83 54.75 55.47 56.00 56.22 55.88 55.89 55.66 54.88 54.69 54.86 55.36 55.51 55.81 57.36 56.94 56.25 57.64
28.69 23.44 19.79 23.07 28.60 30.38 27.11 26.69 25.79 18.82 14.81 17.21 17.25 19.57 34.09 34.64 34.36 34.74 35.23 38.63 40.92 43.78 45.67 47.42 48.86 51.89 54.70 54.63 55.29 55.28 55.92 55.93 55.60 55.29 54.60 53.11 53.51 53.27 53.02 53.66 55.05 55.17 54.71 55.24
29.11 20.99 17.02 18.73 23.73 27.29 24.07 25.27 25.42 22.98 21.61 15.12 11.67 17.42 32.61 31.88 32.91 34.39 34.41 36.89 41.27 42.72 44.31 46.74 48.22 49.00 52.59 53.59 55.98 56.25 56.00 55.78 55.96 55.08 53.66 53.03 52.69 53.49 53.50 53.53 53.87 54.00 54.38 54.44
33.56 23.23 20.05 16.00 19.81 20.91 17.05 22.27 23.12 19.61 10.46 12.39 18.10 19.90 25.62 28.50 29.77 31.69 33.64 34.94 40.37 43.21 44.41 46.40 46.91 47.96 48.75 55.14 55.62 56.12 55.65 55.69 55.07 54.72 54.02 53.32 53.19 52.95 52.86 53.12 53.26 53.68 54.03 53.88
29.29 21.44 23.05 23.50 24.66 24.79 23.57 22.91 21.98 15.49 19.57 13.60 18.78 19.35 24.31 27.98 29.61 31.38 34.01 35.13 39.85 42.06 44.27 45.21 45.87 47.73 49.26 51.78 55.10 55.39 55.09 54.71 54.65 53.81 53.23 52.83 52.74 52.65 52.73 52.82 53.19 53.58 53.73 54.05
25.05 17.76 21.74 19.16 22.85 22.54 20.91 22.66 22.53 22.48 22.31 21.22 21.96 21.25 29.17 31.03 31.75 31.14 31.00 33.42 38.04 41.59 44.02 45.33 46.79 48.54 48.09 49.35 54.63 54.66 54.37 54.06 53.99 53.00 52.41 52.44 52.03 52.10 52.36 52.72 52.96 53.08 53.27 53.57
21.33 20.07 16.10 9.84 19.29 20.54 14.21 20.23 21.98 22.82 23.84 23.99 19.42 25.91 29.60 28.99 29.87 30.38 31.41 32.39 37.26 41.63 44.86 45.02 47.17 48.42 48.43 49.67 53.57 54.05 54.24 54.11 52.97 52.25 51.94 51.55 51.83 51.93 52.32 52.48 52.22 52.12 52.33 52.85
20.22 18.96 17.88 11.10 16.54 4.74 19.39 25.47 26.30 24.42 26.77 29.95 30.41 31.39 33.34 33.96 35.03 35.85 36.52 33.61 34.94 42.50 44.69 45.62 47.23 48.32 48.97 50.64 51.04 54.62 54.17 53.18 52.12 51.49 51.29 51.43 51.59 51.46 51.61 51.35 50.98 51.20 51.87 51.87
23.90 20.37 7.73 7.63 11.01 16.62 21.98 26.56 27.12 25.74 26.05 32.27 30.86 32.60 34.76 35.38 35.26 33.85 37.29 37.49 38.42 43.02 44.76 45.91 47.88 48.75 49.84 50.39 51.62 53.55 52.81 52.28 51.37 50.82 50.81 51.02 51.10 50.67 50.49 49.86 49.86 50.57 50.76 50.80
23.77 21.10 13.70 12.47 5.05 10.32 20.91 29.73 33.11 31.70 22.08 33.91 34.67 33.70 33.78 35.68 27.63 32.64 37.98 41.32 42.64 44.39 45.93 46.95 48.23 49.47 49.84 50.51 53.53 52.54 51.37 51.02 50.43 50.66 50.57 50.69 50.96 50.40 49.36 49.46 49.30 49.64 50.07 49.63
14.71 12.51 7.60 11.39 12.90 18.34 25.44 30.60 32.90 17.53 20.94 33.39 35.63 35.14 34.38 34.21 35.54 36.68 41.05 41.77 44.02 45.74 46.34 47.74 47.87 50.01 50.63 51.86 53.91 51.69 50.96 50.25 50.93 50.67 50.26 50.35 50.46 49.56 49.16 48.95 49.34 49.18 48.80 48.19
18.76 12.64 10.78 11.32 10.25 13.48 30.55 29.23 22.30 27.18 31.78 35.59 35.51 35.60 34.90 37.71 38.70 38.92 38.90 40.27 44.24 43.35 42.64 45.62 47.15 47.51 47.45 53.05 53.18 51.28 50.56 51.08 50.43 49.93 49.45 49.43 49.50 49.38 49.08 48.39 48.12 48.04 47.12 46.04
14.79 17.65 13.97 16.18 17.83 27.41 30.66 29.56 32.23 31.94 32.57 35.85 37.03 36.49 35.52 35.09 36.10 37.04 36.64 36.53 37.77 41.15 42.23 45.11 46.46 46.26 50.36 52.95 53.05 51.11 50.31 50.12 49.58 49.05 48.61 48.77 49.19 48.84 48.53 47.33 46.42 45.98 46.16 45.55
19.56 24.68 22.76 23.16 25.61 27.60 29.36 30.52 31.32 33.70 33.48 35.44 35.96 35.53 35.04 33.97 35.62 35.88 36.33 36.06 37.01 38.40 39.89 43.18 43.85 43.50 48.18 52.96 52.99 51.23 50.16 49.94 49.12 48.28 48.19 48.57 48.30 47.81 47.73 47.38 46.83 45.56 44.86 43.97
21.30 23.80 21.33 20.73 24.34 26.35 29.71 30.02 32.14 33.07 34.17 34.13 34.61 34.62 34.12 34.30 35.94 34.79 35.66 36.10 36.92 38.34 39.42 40.67 41.66 42.28 44.65 52.27 50.62 50.50 49.95 49.64 48.39 48.27 48.22 48.30 48.56 47.43 46.94 46.89 46.29 45.11 42.99 44.91
22.93 21.36 19.23 18.10 24.81 25.22 26.19 30.71 32.59 31.41 32.13 33.63 33.61 33.79 34.16 34.26 34.23 34.95 35.40 35.84 36.92 37.78 38.26 39.50 40.39 41.84 47.10 51.16 49.95 49.81 50.12 49.50 48.43 47.74 47.95 48.21 47.76 47.34 46.55 45.02 44.16 47.39 46.68 46.41
MSLP
1012.38 1013.30 1013.50 1013.35 1013.65 1013.86 1013.98 1013.91 1013.54 1012.93 1012.08 1011.65 1011.03 1010.29 1010.14 1009.18 1008.77 1008.28 1007.72 1007.33 1006.77 1006.44 1005.63 1005.17 1004.83 1004.70 1005.04 1005.26 1005.52 1005.90 1006.75 1006.93 1007.71 1009.02 1009.75 1010.48 1010.71 1010.83 1011.00 1011.35 1011.47 1011.78 1012.19 1012.69
1013.29 1013.28 1013.15 1013.54 1013.83 1014.04 1014.13 1013.90 1013.36 1012.55 1011.72 1011.53 1011.06 1009.90 1009.62 1009.34 1008.38 1007.73 1007.42 1006.92 1006.44 1006.02 1005.27 1004.79 1004.39 1004.21 1004.48 1004.50 1004.80 1005.40 1005.96 1006.40 1006.86 1008.02 1009.02 1009.79 1010.41 1011.01 1011.04 1011.29 1011.64 1011.96 1012.30 1012.67
1013.34 1012.75 1012.72 1013.38 1013.56 1013.80 1013.69 1013.59 1013.00 1012.47 1011.82 1011.32 1011.17 1009.97 1009.62 1008.68 1008.27 1007.60 1007.53 1006.96 1006.27 1005.79 1005.00 1004.20 1003.71 1003.70 1003.98 1004.36 1004.47 1004.69 1005.20 1005.69 1006.65 1007.59 1008.90 1009.92 1010.78 1011.51 1011.84 1011.83 1011.99 1012.25 1012.41 1012.68
1012.97 1012.38 1012.53 1012.93 1013.41 1013.39 1013.32 1012.43 1012.40 1012.36 1012.47 1012.32 1011.61 1010.96 1010.08 1009.23 1008.77 1008.71 1008.36 1007.67 1006.68 1005.58 1004.43 1003.97 1003.53 1003.31 1003.35 1003.33 1003.66 1004.09 1004.63 1005.10 1006.19 1007.11 1008.32 1009.26 1009.90 1010.94 1011.09 1011.37 1011.76 1012.23 1012.45 1012.83
1013.08 1012.87 1012.86 1012.81 1012.63 1012.81 1012.79 1012.52 1012.33 1012.38 1012.66 1012.57 1012.30 1012.46 1009.93 1010.17 1009.84 1009.87 1009.71 1008.97 1007.63 1006.86 1005.92 1004.70 1004.02 1003.57 1003.08 1003.41 1003.23 1003.83 1004.36 1005.34 1005.92 1006.64 1007.61 1008.73 1009.83 1010.40 1010.94 1011.48 1011.78 1012.25 1012.58 1012.69
1013.28 1013.23 1013.54 1013.64 1013.17 1012.90 1012.69 1013.14 1013.08 1012.93 1013.52 1013.59 1012.86 1012.93 1011.33 1011.70 1012.50 1011.77 1011.29 1010.41 1008.95 1007.40 1006.78 1006.02 1005.01 1003.87 1003.54 1003.58 1003.51 1003.77 1004.76 1004.90 1005.84 1006.59 1007.70 1008.36 1009.45 1010.37 1011.09 1011.63 1011.94 1012.36 1012.63 1012.81
1014.72 1014.73 1014.39 1014.40 1014.34 1013.77 1013.72 1013.90 1014.82 1015.09 1014.79 1013.76 1013.23 1013.38 1012.35 1012.88 1013.23 1012.92 1012.33 1011.64 1010.44 1009.15 1008.19 1007.30 1006.18 1005.51 1004.93 1004.35 1004.42 1003.98 1004.87 1006.12 1006.13 1006.69 1007.85 1008.67 1009.37 1010.14 1010.75 1011.36 1011.86 1012.38 1012.88 1013.11
1016.26 1016.24 1016.39 1015.98 1015.87 1015.74 1015.57 1015.93 1016.40 1016.79 1016.60 1015.15 1013.99 1013.49 1012.62 1013.19 1013.56 1013.60 1013.21 1012.68 1011.39 1010.32 1009.48 1008.45 1007.23 1006.71 1006.04 1005.82 1005.28 1005.44 1004.90 1006.19 1007.12 1007.49 1008.04 1009.23 1009.64 1010.22 1010.77 1011.26 1011.73 1012.28 1012.69 1012.92
1017.54 1017.69 1017.66 1017.48 1017.18 1016.86 1016.99 1017.48 1018.12 1018.34 1018.19 1017.48 1015.04 1013.62 1013.33 1013.45 1013.62 1013.51 1013.30 1012.68 1012.15 1011.34 1010.31 1009.46 1008.51 1007.53 1006.74 1006.75 1006.45 1006.40 1006.46 1006.69 1007.26 1008.11 1008.42 1009.42 1009.92 1010.39 1010.94 1011.47 1011.80 1012.32 1012.71 1012.92
1018.37 1018.62 1018.56 1018.48 1018.29 1018.22 1018.04 1018.41 1019.03 1019.66 1020.29 1019.46 1016.41 1014.92 1014.17 1014.40 1014.37 1014.09 1013.52 1013.35 1012.86 1012.31 1010.77 1009.63 1008.94 1008.69 1007.56 1007.41 1007.35 1007.11 1007.66 1007.90 1008.27 1008.96 1009.07 1009.65 1010.24 1010.45 1010.96 1011.61 1012.06 1012.47 1012.81 1013.05
1019.14 1019.27 1019.77 1019.34 1019.71 1020.02 1019.90 1019.91 1020.33 1020.89 1021.43 1021.25 1019.53 1016.31 1015.26 1015.33 1014.91 1014.49 1014.18 1013.81 1013.43 1012.83 1011.78 1010.26 1009.73 1009.33 1008.70 1007.95 1008.11 1008.11 1008.33 1008.42 1008.99 1009.55 1010.06 1010.40 1010.70 1010.98 1011.34 1011.88 1012.28 1012.58 1012.94 1013.10
1019.73 1020.66 1020.98 1020.78 1020.61 1021.05 1021.37 1021.78 1022.29 1022.87 1023.40 1023.07 1021.95 1017.59 1015.93 1015.66 1015.48 1014.66 1013.98 1013.57 1013.55 1013.01 1012.32 1011.05 1010.36 1010.11 1009.43 1008.64 1008.46 1008.57 1008.54 1008.75 1009.52 1009.82 1010.27 1011.19 1011.23 1011.49 1011.90 1012.42 1012.70 1012.88 1013.30 1013.44
1019.85 1021.22 1021.91 1022.15 1021.74 1021.70 1022.15 1022.84 1023.29 1024.10 1024.20 1023.55 1022.73 1018.01 1016.66 1016.13 1015.72 1015.24 1014.70 1013.71 1013.27 1012.62 1012.06 1011.44 1010.41 1010.24 1009.83 1009.18 1008.79 1008.81 1009.07 1009.33 1009.75 1010.21 1010.51 1011.55 1011.69 1011.85 1012.51 1012.82 1012.97 1013.14 1013.56 1013.66
1020.05 1021.50 1021.81 1022.38 1022.32 1022.58 1022.96 1023.35 1023.67 1024.43 1024.78 1023.48 1021.70 1019.02 1018.37 1017.27 1015.92 1015.14 1014.64 1013.99 1013.29 1012.65 1012.02 1011.16 1010.56 1010.34 1010.15 1009.22 1009.20 1008.99 1009.29 1009.56 1009.90 1010.47 1011.10 1011.68 1011.82 1012.17 1012.80 1013.08 1013.27 1013.69 1013.97 1013.99
1021.04 1022.06 1022.64 1022.93 1022.77 1022.77 1022.71 1022.78 1023.22 1023.83 1023.07 1022.86 1020.74 1019.56 1017.93 1017.02 1015.89 1014.89 1014.46 1013.83 1013.26 1012.69 1012.24 1011.69 1010.98 1010.46 1010.28 1009.84 1008.85 1008.91 1009.30 1009.69 1010.08 1010.68 1011.36 1011.79 1012.04 1012.70 1012.91 1013.44 1013.82 1014.06 1014.18 1014.15
1022.10 1023.10 1023.66 1023.77 1023.37 1023.00 1022.47 1021.62 1021.67 1021.70 1021.41 1021.22 1020.01 1018.66 1016.85 1015.95 1015.13 1014.44 1014.10 1013.66 1013.03 1012.29 1011.73 1010.74 1011.32 1010.90 1010.23 1010.44 1008.71 1008.80 1009.06 1009.66 1010.21 1010.92 1011.57 1012.07 1012.29 1012.82 1013.40 1013.84 1014.05 1014.25 1014.30 1014.29
1022.99 1024.05 1024.88 1024.74 1024.34 1023.72 1022.18 1020.50 1020.18 1020.13 1019.95 1019.62 1018.81 1017.14 1016.22 1015.41 1014.50 1013.67 1013.16 1012.78 1012.38 1011.95 1011.56 1011.26 1010.53 1009.98 1010.21 1009.42 1008.33 1008.65 1008.93 1009.58 1010.34 1011.03 1011.69 1012.12 1012.46 1013.20 1013.73 1013.97 1014.24 1014.36 1014.43 1014.52
1023.62 1024.54 1025.43 1025.82 1024.86 1023.52 1020.94 1019.64 1019.29 1019.06 1018.50 1018.20 1017.75 1016.81 1015.94 1015.01 1013.81 1012.71 1011.84 1011.60 1011.22 1011.28 1011.16 1010.72 1010.46 1010.33 1009.42 1009.15 1008.86 1008.73 1008.83 1009.58 1010.30 1011.08 1011.67 1012.22 1012.70 1013.65 1013.90 1014.14 1014.41 1014.55 1014.73 1014.85
1023.54 1024.70 1026.26 1026.53 1025.64 1023.04 1020.48 1019.10 1018.77 1018.33 1017.17 1017.27 1017.29 1016.19 1015.36 1013.82 1011.96 1011.31 1010.49 1009.84 1010.02 1010.17 1010.49 1010.72 1010.36 1009.79 1008.96 1008.65 1008.95 1008.61 1008.91 1009.61 1010.35 1011.01 1011.63 1012.12 1013.14 1013.76 1014.02 1014.26 1014.62 1014.85 1015.07 1015.34
1024.18 1024.90 1026.29 1026.89 1025.79 1023.17 1019.81 1018.50 1017.73 1017.71 1017.19 1016.73 1016.28 1015.76 1014.70 1013.65 1012.57 1011.49 1010.28 1009.43 1009.54 1009.79 1009.95 1009.64 1009.19 1009.16 1007.74 1008.19 1007.45 1007.73 1008.63 1009.51 1010.25 1010.83 1011.49 1012.31 1013.33 1013.72 1014.09 1014.46 1014.87 1015.29 1015.49 1016.01
1024.94 1025.94 1026.24 1026.19 1024.86 1021.82 1019.13 1018.09 1017.48 1017.74 1017.61 1016.27 1015.52 1015.14 1014.68 1014.20 1013.52 1012.29 1010.89 1010.09 1009.74 1009.72 1009.42 1009.07 1008.56 1007.60 1008.11 1007.70 1006.97 1007.39 1008.46 1009.23 1010.13 1010.94 1011.65 1012.71 1013.37 1013.83 1014.20 1014.72 1015.19 1015.52 1016.00 1016.68
1023.54 1025.11 1025.71 1025.25 1023.98 1021.03 1018.29 1017.94 1017.98 1017.41 1016.71 1016.15 1015.26 1014.97 1014.43 1013.65 1013.07 1012.16 1012.04 1011.02 1010.42 1010.03 1009.13 1009.05 1008.60 1008.50 1008.36 1006.61 1006.73 1007.46 1008.40 1009.27 1010.25 1011.19 1012.11 1012.85 1013.44 1013.92 1014.51 1014.92 1015.56 1016.00 1016.50 1017.19
1022.63 1022.60 1023.04 1022.83 1021.05 1019.06 1018.16 1017.83 1017.08 1016.82 1016.53 1015.80 1015.18 1014.54 1014.13 1013.20 1012.64 1012.09 1011.71 1011.11 1010.53 1010.20 1009.67 1009.51 1009.44 1008.44 1006.65 1006.15 1006.80 1007.50 1008.63 1009.51 1010.62 1011.55 1012.32 1012.97 1013.59 1014.14 1014.70 1015.22 1015.87 1016.38 1016.98 1017.61
1021.47 1021.44 1021.59 1021.30 1019.12 1018.42 1017.72 1017.10 1016.68 1016.32 1016.00 1015.42 1014.91 1014.41 1013.94 1013.19 1012.61 1012.30 1011.59 1011.06 1010.59 1010.01 1010.07 1009.89 1009.40 1008.32 1007.31 1006.74 1007.01 1007.82 1008.74 1009.76 1010.74 1011.67 1012.45 1013.14 1013.77 1014.49 1015.09 1015.61 1016.08 1016.62 1017.22 1017.98
1020.48 1020.63 1020.63 1020.09 1018.77 1018.14 1017.23 1016.83 1016.47 1016.00 1015.47 1015.10 1014.54 1014.07 1013.73 1013.15 1012.47 1012.26 1011.92 1011.64 1011.42 1011.08 1010.50 1009.82 1009.53 1009.31 1008.21 1007.36 1007.85 1008.35 1009.04 1009.84 1010.93 1011.81 1012.54 1013.31 1014.02 1014.74 1015.39 1016.00 1016.52 1017.10 1017.65 1017.65
1019.45 1019.05 1019.44 1018.77 1017.80 1017.61 1017.03 1016.46 1016.16 1015.93 1015.34 1014.93 1014.58 1013.85 1013.30 1013.09 1012.60 1012.29 1012.17 1011.92 1011.67 1011.17 1010.65 1010.03 1009.99 1009.75 1008.42 1007.99 1008.46 1008.93 1009.38 1010.01 1010.94 1011.82 1012.59 1013.35 1014.14 1015.00 1015.67 1016.43 1017.35 1017.97 1018.16 1018.51
Wind_Speed
1 2 7 13 8 1 1 4 7 6 10 6 13 13 10 11 8 11 15 12 12 11 11 10 9 8 8 7 9 13 14 13 11 6 6 4 5 3 3 3 6 6 6 6
3 6 11 4 4 5 5 7 7 7 10 4 8 17 10 8 10 13 13 16 11 9 9 12 11 8 9 9 13 14 15 15 13 10 5 4 4 2 2 3 4 5 6 6
8 7 3 4 5 7 7 6 7 11 5 4 5 13 7 8 8 7 8 11 15 11 14 13 12 8 8 9 13 16 17 17 13 12 7 5 5 4 2 2 3 4 5 5
6 5 3 4 5 7 5 10 12 9 2 5 4 9 8 8 10 1 11 14 14 13 9 8 8 7 9 11 11 15 16 18 14 15 12 14 9 7 4 4 4 4 6 5
6 1 2 5 4 3 8 2 6 3 3 3 1 1 7 6 11 14 15 20 18 10 11 11 7 6 4 5 11 12 15 14 13 15 13 9 5 3 3 3 6 4 4 5
4 4 4 3 1 1 6 3 2 3 2 5 5 6 10 2 4 10 15 19 19 18 16 12 10 5 3 4 5 8 11 14 13 13 10 11 10 7 5 4 4 4 2 3
5 3 4 3 3 5 6 1 4 4 2 8 1 5 12 5 4 8 15 16 17 17 17 14 12 9 6 4 4 10 11 6 10 12 9 8 9 8 8 6 5 5 3 2
3 4 8 9 4 1 4 4 4 6 4 5 2 6 6 4 4 7 11 12 16 19 17 15 12 9 7 7 4 6 14 12 7 9 9 6 7 4 4 5 5 4 3 4
3 3 3 6 5 2 3 5 0 1 4 2 5 6 3 5 13 15 17 19 19 18 17 17 13 8 7 6 7 8 10 10 11 7 7 7 6 7 6 6 5 4 4 3
3 0 4 5 1 6 4 2 2 1 2 5 6 5 5 12 12 15 19 17 18 19 18 17 15 11 6 6 6 10 8 8 9 6 6 6 6 6 7 6 6 5 4 4
2 1 1 4 3 4 5 3 3 2 2 4 5 6 6 9 9 13 15 12 14 15 16 14 17 9 6 5 6 7 8 9 8 7 5 6 6 6 7 6 6 6 5 5
2 3 1 3 5 5 1 3 4 3 4 2 4 10 6 8 12 17 18 14 13 13 13 12 11 16 7 2 5 3 7 8 5 6 9 5 6 7 7 6 6 6 5 4
5 1 1 1 3 3 4 2 4 3 3 8 4 9 9 22 19 15 18 17 13 13 14 11 12 12 14 5 4 6 5 7 7 8 10 6 6 7 7 5 5 5 3 3
5 3 5 4 1 3 1 2 4 5 3 6 14 24 19 21 24 16 15 16 13 11 12 12 12 12 15 7 5 7 7 8 8 8 8 7 7 7 6 5 5 4 2 2
3 3 3 6 6 5 8 10 7 8 15 9 20 20 21 18 22 18 15 14 12 11 9 8 12 11 11 15 6 7 8 9 8 9 7 7 7 6 6 5 3 3 3 2
3 1 2 4 6 6 12 12 12 16 18 15 20 22 24 22 20 19 14 13 11 11 11 8 12 10 9 15 9 9 10 10 9 9 8 7 7 6 5 4 3 3 3 4
5 5 3 4 3 6 6 6 4 5 6 8 11 19 12 13 15 16 14 9 11 11 9 8 9 8 7 10 10 11 11 11 10 10 8 8 8 6 5 5 4 5 6 7
6 5 3 3 2 3 8 2 7 9 11 7 7 13 16 16 17 19 16 14 12 8 8 6 6 8 7 9 14 8 12 12 11 10 9 8 8 6 6 6 6 6 7 8
4 5 2 3 2 7 6 3 3 3 17 1 14 19 15 22 18 18 16 14 11 8 5 6 8 7 5 7 13 12 12 12 11 11 10 9 8 7 7 8 7 7 9 9
5 6 5 1 2 5 4 4 4 0 6 5 10 13 17 17 7 6 14 2 3 4 4 7 5 7 7 13 11 14 13 12 11 12 11 10 8 8 8 9 8 7 9 9
3 2 6 3 4 8 7 6 4 3 6 13 12 12 13 6 8 8 9 6 1 2 7 8 8 8 9 15 8 12 13 12 10 11 11 10 9 9 9 9 8 10 11 10
7 7 4 2 3 8 5 4 2 6 6 7 12 12 8 8 6 6 13 7 1 4 6 10 11 12 15 14 13 13 13 11 12 12 11 10 10 8 8 11 9 10 11 11
2 8 7 10 9 4 2 4 7 4 6 5 7 12 7 9 6 5 2 5 4 6 3 7 9 13 13 7 11 13 12 14 13 12 12 11 10 10 9 11 11 9 10 9
4 4 4 1 6 10 5 6 5 5 7 8 7 8 6 8 6 6 5 6 6 7 6 3 10 15 14 4 8 12 13 14 13 13 12 11 11 10 9 7 7 8 9 9
6 7 5 6 8 7 11 6 5 6 10 9 8 6 6 6 5 1 4 5 5 5 5 4 7 11 15 6 9 10 13 14 13 12 11 11 9 10 9 7 6 7 4 8
6 8 7 8 7 5 5 5 5 6 9 7 5 8 8 4 2 1 4 4 4 5 6 6 5 7 13 5 8 9 11 13 14 12 10 9 9 8 8 8 8 14 12 14
Wind_Direction
288 142 203 221 209 175 224 247 259 258 270 282 286 288 268 275 294 278 287 275 268 260 265 270 263 222 223 209 177 183 183 174 148 153 149 157 169 153 141 147 146 140 136 147
18 242 236 230 239 235 247 263 270 277 256 205 274 277 273 257 251 253 262 282 277 269 272 266 263 245 191 195 191 179 184 171 170 166 165 139 135 100 102 133 139 137 146 158
180 227 117 184 257 261 234 229 246 249 288 271 289 288 272 274 264 288 292 269 279 249 266 266 265 231 196 190 189 180 183 177 170 149 118 95 79 64 99 148 133 157 153 161
219 242 224 199 220 238 265 228 247 269 331 267 132 288 293 276 282 304 330 327 306 278 271 268 267 243 199 202 191 187 180 171 164 151 157 166 166 166 182 151 150 150 147 159
254 275 174 196 201 190 238 341 250 249 241 321 243 197 273 340 315 347 336 332 328 330 322 315 313 309 243 203 184 185 169 171 160 160 163 154 135 122 119 117 134 138 146 151
241 346 54 292 26 88 278 257 65 77 100 301 194 194 285 34 316 314 323 336 344 353 340 333 334 9 59 77 149 142 169 160 156 147 140 144 142 141 130 129 134 144 139 153
342 26 348 10 340 343 5 75 350 332 249 232 69 245 251 103 354 335 342 344 351 359 348 343 350 353 2 103 126 136 129 124 140 134 134 146 141 147 151 152 146 144 137 150
188 280 358 336 57 300 350 330 157 209 221 251 20 239 255 120 12 357 356 348 358 4 356 345 354 356 14 11 73 111 128 122 107 123 121 138 148 137 143 152 141 144 151 148
162 271 289 40 19 347 343 58 273 308 299 15 233 295 102 131 21 9 3 358 350 354 356 355 340 343 35 36 53 92 101 101 107 115 120 122 124 135 137 126 121 130 138 143
162 28 18 325 313 22 93 212 71 41 283 257 272 230 230 27 8 357 358 354 348 343 351 356 350 334 24 45 56 75 75 87 100 108 95 110 120 113 113 117 125 136 149 161
107 95 307 2 19 352 353 35 51 91 169 234 297 267 88 53 9 349 339 336 340 337 337 356 353 320 333 70 58 101 115 114 93 93 71 100 102 102 103 109 118 117 112 126
33 109 157 236 324 313 266 83 55 89 313 257 222 260 153 8 351 344 335 329 322 330 325 347 356 348 282 167 142 152 116 113 114 122 113 93 99 99 94 97 108 101 103 93
164 104 103 54 354 20 97 81 130 175 190 221 234 255 346 318 321 332 319 318 310 323 329 330 351 346 322 262 150 142 132 122 123 121 103 115 104 100 100 99 98 99 82 80
110 153 169 198 233 152 85 226 258 165 190 253 251 284 288 293 297 302 304 300 299 307 319 327 336 344 348 257 206 151 132 130 123 119 118 119 107 101 104 97 84 98 125 146
99 196 192 231 236 240 255 247 219 199 237 221 269 268 276 271 272 279 281 285 284 287 291 303 317 325 326 311 191 147 138 130 128 118 115 111 106 109 99 90 111 129 145 155
25 197 155 283 248 253 273 267 250 257 268 265 261 266 266 269 271 271 256 262 264 269 285 324 291 285 343 318 206 158 146 141 134 130 126 127 115 108 108 126 128 129 123 102
135 137 131 282 329 278 297 254 214 251 215 244 275 287 304 295 279 271 274 249 252 245 240 248 279 290 301 312 299 170 149 140 138 133 135 130 120 120 132 122 117 111 101 97
144 126 112 231 342 357 246 245 235 240 265 294 301 312 288 288 284 280 269 252 250 210 227 255 260 257 292 331 332 189 150 149 143 138 135 132 123 138 129 119 112 100 100 96
169 126 62 125 209 285 283 114 309 322 303 96 335 304 301 294 284 280 263 241 211 201 219 238 246 250 260 298 294 173 147 146 145 144 142 134 140 140 131 118 113 106 99 90
76 85 114 122 155 254 244 272 270 224 281 339 324 317 332 333 350 315 329 273 144 146 253 265 285 257 35 305 256 154 148 149 154 149 142 135 143 136 128 122 114 104 96 93
85 27 173 225 252 275 240 268 329 67 262 327 314 318 325 346 324 279 341 356 132 43 294 307 343 351 321 282 189 155 150 151 145 133 127 131 134 129 124 116 116 112 104 104
161 147 196 139 207 269 188 16 136 229 293 285 312 306 311 288 266 21 1 330 67 272 10 351 348 340 307 248 164 151 148 134 132 131 128 128 129 128 123 118 110 111 112 108
171 186 181 173 213 244 227 229 251 242 251 256 274 304 296 298 297 320 296 356 359 317 44 24 332 324 311 151 149 139 137 133 132 130 129 128 126 125 127 126 119 117 114 113
225 171 210 147 249 247 230 292 262 285 267 279 287 283 281 286 299 311 359 359 1 356 345 70 353 346 333 70 129 133 136 135 133 131 130 129 127 124 127 123 128 127 127 118
193 143 198 263 282 293 283 244 261 295 302 299 303 281 299 302 282 325 349 355 340 326 319 25 28 334 315 117 123 132 137 136 132 133 131 130 129 130 126 116 126 127 106 136
186 186 172 220 217 194 253 279 294 303 289 295 311 320 326 328 26 18 328 330 327 331 332 22 355 349 313 104 126 136 141 139 137 136 134 135 133 131 124 115 92 74 85 101